Russellville, AR

4:47 AM CST on February 25, 2017 (GMT -0600)
Russellville Regional

Weather History for KRUE - November, 2012

Change the Weather History Date:

Saturday, November 10, 2012

  Actual Average (KHOT) Record (KHOT)
Temperature  
Mean Temperature 65 °F -  
Max Temperature 75 °F 64 °F 83 °F (1980)
Min Temperature 55 °F 40 °F 18 °F (1991)
Growing Degree Days 15 (Base 50)    
Moisture  
Dew Point 54 °F    
Average Humidity 67    
Maximum Humidity 84    
Minimum Humidity 48    
Precipitation  
Precipitation 0.00 in - - ()
Sea Level Pressure  
Sea Level Pressure 30.03 in    
Wind  
Wind Speed 3 mph (SSE)    
Max Wind Speed 10 mph    
Max Gust Speed 18 mph    
Visibility 10 miles    
Events      
Averages and records for this station are not official NWS values.
T = Trace of Precipitation, MM = Missing Value Source: NWS Daily Summary

Daily Weather History Graph

Daily Weather History Graph

Search for Another Location

Airport or City:

Trip Planner

Search our weather history database for the weather conditions in past years. The results will help you decide how hot, cold, wet, or windy it might be!

Date:

Astronomy

Nov. 10, 2012 Rise Set
Actual Time 6:42 AM CST 5:09 PM CST
Civil Twilight 6:16 AM CST 5:36 PM CST
Nautical Twilight 5:45 AM CST 6:06 PM CST
Astronomical Twilight 5:15 AM CST 6:36 PM CST
Moon 2:55 AM CST (11/10) 2:50 PM CST (11/10)
Length of Visible Light 11h 19m
Length of Day
10h 26m
Waning Crescent, 14% of the Moon is Illuminated
Nov 10
Waning Crescent
Nov 13
New
Nov 20
First Quarter
Nov 28
Full
Dec 6
Last Quarter

Hourly Weather History & Observations

Time (CST) Temp. Dew Point Humidity Pressure Visibility Wind Dir Wind Speed Gust Speed Precip Events Conditions
12:53 AM 57.0 °F 45.0 °F 64% 30.03 in 10.0 mi Calm Calm - N/A   Clear
1:53 AM 57.0 °F 46.0 °F 67% 30.04 in 10.0 mi Calm Calm - N/A   Clear
2:53 AM 59.0 °F 48.0 °F 67% 30.04 in 10.0 mi Variable 3.5 mph - N/A   Clear
3:53 AM 57.9 °F 48.9 °F 72% 30.04 in 10.0 mi Calm Calm - N/A   Clear
4:53 AM 57.0 °F 50.0 °F 77% 30.06 in 10.0 mi East 3.5 mph - N/A   Scattered Clouds
5:53 AM 55.9 °F 51.1 °F 84% 30.06 in 10.0 mi Calm Calm - N/A   Partly Cloudy
6:53 AM 59.0 °F 54.0 °F 83% 30.08 in 10.0 mi SSE 4.6 mph - N/A   Clear
7:53 AM 62.1 °F 55.9 °F 80% 30.09 in 10.0 mi Variable 4.6 mph - N/A   Scattered Clouds
8:43 AM 64.4 °F 57.2 °F 77% 30.12 in 10.0 mi Calm Calm - N/A   Mostly Cloudy
8:53 AM 64.0 °F 57.0 °F 78% 30.11 in 10.0 mi Variable 3.5 mph - N/A   Mostly Cloudy
9:53 AM 66.9 °F 57.9 °F 73% 30.10 in 10.0 mi South 8.1 mph - N/A   Scattered Clouds
10:10 AM 66.2 °F 57.2 °F 73% 30.11 in 10.0 mi Variable 5.8 mph - N/A   Mostly Cloudy
10:53 AM 66.9 °F 57.9 °F 73% 30.09 in 10.0 mi South 9.2 mph - N/A   Mostly Cloudy
11:53 AM 68.0 °F 57.9 °F 70% 30.05 in 10.0 mi South 6.9 mph 17.3 mph N/A   Scattered Clouds
12:17 PM 68.0 °F 57.2 °F 68% 30.05 in 10.0 mi SSE 8.1 mph - N/A   Mostly Cloudy
12:36 PM 69.8 °F 57.2 °F 64% 30.04 in 10.0 mi Variable 4.6 mph - N/A   Scattered Clouds
12:53 PM 69.1 °F 57.9 °F 68% 30.01 in 10.0 mi Variable 4.6 mph - N/A   Clear
1:53 PM 75.0 °F 55.0 °F 50% 29.97 in 10.0 mi SSE 9.2 mph - N/A   Partly Cloudy
2:53 PM 75.0 °F 54.0 °F 48% 29.96 in 10.0 mi SSE 10.4 mph 18.4 mph N/A   Clear
3:53 PM 75.0 °F 54.0 °F 48% 29.95 in 10.0 mi SSE 8.1 mph - N/A   Clear
4:53 PM 72.0 °F 54.0 °F 53% 29.95 in 10.0 mi Variable 5.8 mph - N/A   Clear
5:53 PM 70.0 °F 55.0 °F 59% 29.96 in 10.0 mi ESE 4.6 mph - N/A   Clear
6:53 PM 69.1 °F 55.9 °F 63% 29.99 in 10.0 mi Variable 3.5 mph - N/A   Mostly Cloudy
7:53 PM 66.9 °F 55.9 °F 68% 29.98 in 10.0 mi Variable 3.5 mph - N/A   Mostly Cloudy
8:53 PM 68.0 °F 55.9 °F 65% 29.96 in 10.0 mi Variable 3.5 mph - N/A   Partly Cloudy
10:53 PM 68.0 °F 55.9 °F 65% 29.94 in 10.0 mi Variable 5.8 mph - N/A   Scattered Clouds
11:53 PM 68.0 °F 55.9 °F 65% 29.95 in 10.0 mi Variable 6.9 mph - N/A   Partly Cloudy